Time,TemperatureF,DewpointF,PressureIn,WindDirection,WindDirectionDegrees,WindSpeedMPH,WindSpeedGustMPH,Humidity,HourlyPrecipIn,Conditions,Clouds,dailyrainin,SoftwareType,DateUTC
2012-08-05 00:02:00,86.5,60.7,30.00,NNW,332,0.0,0.0,42,0.00,,,0.00,VWS V13.01,2012-08-05 05:02:00,
2012-08-05 00:07:00,86.5,61.3,30.00,NNW,332,0.0,0.0,43,0.00,,,0.00,VWS V13.01,2012-08-05 05:07:00,
2012-08-05 00:12:00,85.8,61.3,30.00,NNE,26,4.9,4.9,44,0.00,,,0.00,VWS V13.01,2012-08-05 05:12:00,
2012-08-05 00:17:00,85.0,61.3,30.00,NE,38,4.5,4.5,45,0.00,,,0.00,VWS V13.01,2012-08-05 05:17:00,
2012-08-05 00:22:00,85.0,62.0,30.00,NE,46,2.7,2.7,46,0.00,,,0.00,VWS V13.01,2012-08-05 05:22:00,
2012-08-05 00:27:00,84.9,61.2,30.00,ENE,78,2.7,2.7,45,0.00,,,0.00,VWS V13.01,2012-08-05 05:27:00,
2012-08-05 00:32:00,84.9,60.5,30.00,ENE,78,0.0,0.0,44,0.00,,,0.00,VWS V13.01,2012-08-05 05:32:00,
2012-08-05 00:37:00,85.0,60.7,30.00,ENE,78,0.0,0.0,44,0.00,,,0.00,VWS V13.01,2012-08-05 05:37:00,
2012-08-05 00:42:00,85.0,60.1,30.00,ESE,102,0.0,0.0,43,0.00,,,0.00,VWS V13.01,2012-08-05 05:42:00,
2012-08-05 00:47:00,85.0,60.7,29.97,ESE,102,0.0,0.0,44,0.00,,,0.00,VWS V13.01,2012-08-05 05:47:00,
2012-08-05 00:52:00,85.2,60.9,29.97,ESE,117,0.0,0.0,44,0.00,,,0.00,VWS V13.01,2012-08-05 05:52:00,
2012-08-05 00:57:00,85.0,60.1,29.97,ESE,117,0.0,0.0,43,0.00,,,0.00,VWS V13.01,2012-08-05 05:57:00,
2012-08-05 01:02:00,85.2,60.9,29.97,NE,39,0.0,0.0,44,0.00,,,0.00,VWS V13.01,2012-08-05 06:02:00,
2012-08-05 01:07:00,85.4,59.7,29.97,ENE,77,0.0,0.0,42,0.00,,,0.00,VWS V13.01,2012-08-05 06:07:00,
2012-08-05 01:12:00,86.1,59.7,29.97,ESE,108,0.0,0.0,41,0.00,,,0.00,VWS V13.01,2012-08-05 06:12:00,
2012-08-05 01:17:00,86.3,60.5,29.97,NNW,345,0.0,0.0,42,0.00,,,0.00,VWS V13.01,2012-08-05 06:17:00,
2012-08-05 01:22:00,86.1,60.4,29.97,NNW,331,0.0,0.0,42,0.00,,,0.00,VWS V13.01,2012-08-05 06:22:00,
2012-08-05 01:27:00,85.9,60.2,29.97,West,260,0.0,0.0,42,0.00,,,0.00,VWS V13.01,2012-08-05 06:27:00,
2012-08-05 01:32:00,85.6,60.5,29.97,WSW,238,0.0,0.0,43,0.00,,,0.00,VWS V13.01,2012-08-05 06:32:00,
2012-08-05 01:37:00,85.4,59.7,29.97,WSW,238,0.0,0.0,42,0.00,,,0.00,VWS V13.01,2012-08-05 06:37:00,
2012-08-05 01:42:00,85.0,60.7,29.97,SW,226,0.0,0.0,44,0.00,,,0.00,VWS V13.01,2012-08-05 06:42:00,
2012-08-05 01:47:00,84.9,61.2,29.97,SW,226,0.0,0.0,45,0.00,,,0.00,VWS V13.01,2012-08-05 06:47:00,
2012-08-05 01:52:00,84.5,61.5,29.97,SW,226,0.0,0.0,46,0.00,,,0.00,VWS V13.01,2012-08-05 06:52:00,
2012-08-05 01:57:00,84.3,61.3,29.97,SW,226,0.0,0.0,46,0.00,,,0.00,VWS V13.01,2012-08-05 06:57:00,
2012-08-05 02:02:00,84.1,61.1,29.97,SW,226,0.0,0.0,46,0.00,,,0.00,VWS V13.01,2012-08-05 07:02:00,
2012-08-05 02:07:00,83.8,61.4,29.97,ESE,115,0.0,0.0,47,0.00,,,0.00,VWS V13.01,2012-08-05 07:07:00,
2012-08-05 02:12:00,83.2,62.7,29.97,ESE,116,0.0,0.0,50,0.00,,,0.00,VWS V13.01,2012-08-05 07:12:00,
2012-08-05 02:17:00,82.7,61.6,29.97,North,351,0.0,0.0,49,0.00,,,0.00,VWS V13.01,2012-08-05 07:17:00,
2012-08-05 02:22:00,82.7,62.2,29.97,North,351,0.0,0.0,50,0.00,,,0.00,VWS V13.01,2012-08-05 07:22:00,
2012-08-05 02:27:00,82.7,62.2,29.97,North,351,0.0,0.0,50,0.00,,,0.00,VWS V13.01,2012-08-05 07:27:00,
2012-08-05 02:32:00,82.5,62.0,29.97,North,351,0.0,0.0,50,0.00,,,0.00,VWS V13.01,2012-08-05 07:32:00,
2012-08-05 02:37:00,82.5,62.0,29.97,North,351,0.0,0.0,50,0.00,,,0.00,VWS V13.01,2012-08-05 07:37:00,
2012-08-05 02:42:00,82.3,62.4,29.97,NNW,340,0.0,0.0,51,0.00,,,0.00,VWS V13.01,2012-08-05 07:42:00,
2012-08-05 02:47:00,82.3,61.9,29.97,NNW,340,0.0,0.0,50,0.00,,,0.00,VWS V13.01,2012-08-05 07:47:00,
2012-08-05 02:52:00,82.3,61.9,29.97,NNW,340,0.0,0.0,50,0.00,,,0.00,VWS V13.01,2012-08-05 07:52:00,
2012-08-05 02:57:00,82.3,61.9,29.97,NNW,340,0.0,0.0,50,0.00,,,0.00,VWS V13.01,2012-08-05 07:57:00,
2012-08-05 03:02:00,82.3,62.4,29.97,WSW,237,0.0,0.0,51,0.00,,,0.00,VWS V13.01,2012-08-05 08:02:00,
2012-08-05 03:07:00,82.0,62.1,29.97,WSW,237,0.0,0.0,51,0.00,,,0.00,VWS V13.01,2012-08-05 08:07:00,
2012-08-05 03:12:00,82.0,62.1,29.97,WSW,237,0.0,0.0,51,0.00,,,0.00,VWS V13.01,2012-08-05 08:12:00,
2012-08-05 03:17:00,81.8,63.0,30.00,ENE,76,0.0,0.0,53,0.00,,,0.00,VWS V13.01,2012-08-05 08:17:00,
2012-08-05 03:22:00,81.3,63.0,30.00,ENE,77,0.0,0.0,54,0.00,,,0.00,VWS V13.01,2012-08-05 08:22:00,
2012-08-05 03:27:00,81.1,62.9,30.00,ENE,77,0.0,0.0,54,0.00,,,0.00,VWS V13.01,2012-08-05 08:27:00,
2012-08-05 03:32:00,81.1,61.8,30.00,ENE,77,0.0,0.0,52,0.00,,,0.00,VWS V13.01,2012-08-05 08:32:00,
2012-08-05 03:37:00,81.1,61.8,30.00,ENE,77,0.0,0.0,52,0.00,,,0.00,VWS V13.01,2012-08-05 08:37:00,
2012-08-05 03:42:00,81.1,62.3,30.00,ENE,77,0.0,0.0,53,0.00,,,0.00,VWS V13.01,2012-08-05 08:42:00,
2012-08-05 03:47:00,80.9,62.7,30.00,ENE,77,0.0,0.0,54,0.00,,,0.00,VWS V13.01,2012-08-05 08:47:00,
2012-08-05 03:52:00,80.9,61.6,30.00,ESE,104,0.0,0.0,52,0.00,,,0.00,VWS V13.01,2012-08-05 08:52:00,
2012-08-05 03:57:00,80.9,62.7,30.00,ENE,57,0.0,0.0,54,0.00,,,0.00,VWS V13.01,2012-08-05 08:57:00,
2012-08-05 04:02:00,81.1,62.3,30.00,SSW,197,0.0,0.0,53,0.00,,,0.00,VWS V13.01,2012-08-05 09:02:00,
2012-08-05 04:07:00,80.7,62.5,30.00,SSW,205,0.0,0.0,54,0.00,,,0.00,VWS V13.01,2012-08-05 09:07:00,
2012-08-05 04:12:00,80.7,63.6,30.00,North,6,0.0,0.0,56,0.00,,,0.00,VWS V13.01,2012-08-05 09:12:00,
2012-08-05 04:17:00,80.7,62.5,30.00,North,6,0.0,0.0,54,0.00,,,0.00,VWS V13.01,2012-08-05 09:17:00,
2012-08-05 04:22:00,80.9,62.7,30.00,WNW,298,0.0,0.0,54,0.00,,,0.00,VWS V13.01,2012-08-05 09:22:00,
2012-08-05 04:27:00,81.1,62.3,30.00,WNW,298,0.0,0.0,53,0.00,,,0.00,VWS V13.01,2012-08-05 09:27:00,
2012-08-05 04:32:00,81.1,62.3,30.00,SW,228,0.0,0.0,53,0.00,,,0.00,VWS V13.01,2012-08-05 09:32:00,
2012-08-05 04:37:00,81.1,63.4,30.00,SW,229,0.0,0.0,55,0.00,,,0.00,VWS V13.01,2012-08-05 09:37:00,
2012-08-05 04:42:00,81.3,63.0,30.00,West,261,0.0,0.0,54,0.00,,,0.00,VWS V13.01,2012-08-05 09:42:00,
2012-08-05 04:47:00,81.1,62.9,30.03,West,261,0.0,0.0,54,0.00,,,0.00,VWS V13.01,2012-08-05 09:47:00,
2012-08-05 04:52:00,80.9,62.7,30.03,West,261,0.0,0.0,54,0.00,,,0.00,VWS V13.01,2012-08-05 09:52:00,
2012-08-05 04:57:00,80.5,62.9,30.03,West,261,0.0,0.0,55,0.00,,,0.00,VWS V13.01,2012-08-05 09:57:00,
2012-08-05 05:02:00,80.4,63.2,30.03,West,261,0.0,0.0,56,0.00,,,0.00,VWS V13.01,2012-08-05 10:02:00,
2012-08-05 05:07:00,80.0,63.9,30.03,West,261,0.0,0.0,58,0.00,,,0.00,VWS V13.01,2012-08-05 10:07:00,
2012-08-05 05:12:00,79.8,63.7,30.03,West,261,0.0,0.0,58,0.00,,,0.00,VWS V13.01,2012-08-05 10:12:00,
2012-08-05 05:17:00,79.6,63.6,30.03,West,261,0.0,0.0,58,0.00,,,0.00,VWS V13.01,2012-08-05 10:17:00,
2012-08-05 05:22:00,79.6,63.6,30.03,West,261,0.0,0.0,58,0.00,,,0.00,VWS V13.01,2012-08-05 10:22:00,
2012-08-05 05:27:00,79.6,63.1,30.03,West,261,0.0,0.0,57,0.00,,,0.00,VWS V13.01,2012-08-05 10:27:00,
2012-08-05 05:32:00,79.8,63.7,30.03,West,261,0.0,0.0,58,0.00,,,0.00,VWS V13.01,2012-08-05 10:32:00,
2012-08-05 05:37:00,80.0,63.9,30.03,West,261,0.0,0.0,58,0.00,,,0.00,VWS V13.01,2012-08-05 10:37:00,
2012-08-05 05:42:00,80.0,63.9,30.03,West,261,0.0,0.0,58,0.00,,,0.00,VWS V13.01,2012-08-05 10:42:00,
2012-08-05 05:47:00,80.4,64.2,30.06,WNW,294,0.0,0.0,58,0.00,,,0.00,VWS V13.01,2012-08-05 10:47:00,
2012-08-05 05:52:00,80.5,64.4,30.06,WNW,294,0.0,0.0,58,0.00,,,0.00,VWS V13.01,2012-08-05 10:52:00,
2012-08-05 05:57:00,80.7,64.6,30.06,SE,129,0.0,0.0,58,0.00,,,0.00,VWS V13.01,2012-08-05 10:57:00,
2012-08-05 06:02:00,80.7,64.6,30.06,ESE,122,0.0,0.0,58,0.00,,,0.00,VWS V13.01,2012-08-05 11:02:00,
2012-08-05 06:07:00,80.4,64.2,30.06,ENE,72,0.0,0.0,58,0.00,,,0.00,VWS V13.01,2012-08-05 11:07:00,
2012-08-05 06:12:00,80.4,63.8,30.06,ENE,72,0.0,0.0,57,0.00,,,0.00,VWS V13.01,2012-08-05 11:12:00,
2012-08-05 06:17:00,80.2,64.1,30.06,ESE,107,0.0,0.0,58,0.00,,,0.00,VWS V13.01,2012-08-05 11:17:00,
2012-08-05 06:22:00,80.0,63.4,30.06,East,90,0.0,0.0,57,0.00,,,0.00,VWS V13.01,2012-08-05 11:22:00,
2012-08-05 06:27:00,80.0,62.9,30.06,ESE,112,0.0,0.0,56,0.00,,,0.00,VWS V13.01,2012-08-05 11:27:00,
2012-08-05 06:32:00,80.0,63.4,30.06,ESE,112,0.0,0.0,57,0.00,,,0.00,VWS V13.01,2012-08-05 11:32:00,
2012-08-05 06:37:00,79.8,63.7,30.06,ESE,123,0.0,0.0,58,0.00,,,0.00,VWS V13.01,2012-08-05 11:37:00,
2012-08-05 06:42:00,79.6,63.6,30.06,ESE,123,0.0,0.0,58,0.00,,,0.00,VWS V13.01,2012-08-05 11:42:00,
2012-08-05 06:47:00,79.6,63.6,30.09,ESE,123,0.0,0.0,58,0.00,,,0.00,VWS V13.01,2012-08-05 11:47:00,
2012-08-05 06:52:00,79.8,64.2,30.09,ESE,123,0.0,0.0,59,0.00,,,0.00,VWS V13.01,2012-08-05 11:52:00,
2012-08-05 06:57:00,79.8,64.2,30.09,ESE,123,0.0,0.0,59,0.00,,,0.00,VWS V13.01,2012-08-05 11:57:00,
2012-08-05 07:02:00,80.0,64.4,30.09,ESE,123,0.0,0.0,59,0.00,,,0.00,VWS V13.01,2012-08-05 12:02:00,
2012-08-05 07:07:00,80.2,64.6,30.09,ESE,123,0.0,0.0,59,0.00,,,0.00,VWS V13.01,2012-08-05 12:07:00,
2012-08-05 07:12:00,80.4,64.7,30.09,ESE,123,0.0,0.0,59,0.00,,,0.00,VWS V13.01,2012-08-05 12:12:00,
2012-08-05 07:17:00,80.7,64.6,30.09,SE,126,0.0,0.0,58,0.00,,,0.00,VWS V13.01,2012-08-05 12:17:00,
2012-08-05 07:22:00,81.1,64.4,30.09,SE,134,0.0,0.0,57,0.00,,,0.00,VWS V13.01,2012-08-05 12:22:00,
2012-08-05 07:27:00,81.3,64.6,30.09,NE,37,0.0,0.0,57,0.00,,,0.00,VWS V13.01,2012-08-05 12:27:00,
2012-08-05 07:32:00,82.0,63.7,30.09,North,357,2.7,3.6,54,0.00,,,0.00,VWS V13.01,2012-08-05 12:32:00,
2012-08-05 07:37:00,83.1,64.2,30.09,North,350,3.1,3.1,53,0.00,,,0.00,VWS V13.01,2012-08-05 12:37:00,
2012-08-05 07:42:00,83.6,63.6,30.09,North,8,4.0,4.0,51,0.00,,,0.00,VWS V13.01,2012-08-05 12:42:00,
2012-08-05 07:47:00,84.0,63.9,30.09,North,11,0.0,0.0,51,0.00,,,0.00,VWS V13.01,2012-08-05 12:47:00,
2012-08-05 07:52:00,84.1,64.1,30.09,NNE,24,0.0,0.0,51,0.00,,,0.00,VWS V13.01,2012-08-05 12:52:00,
2012-08-05 07:57:00,84.3,64.2,30.09,North,11,0.0,0.0,51,0.00,,,0.00,VWS V13.01,2012-08-05 12:57:00,
2012-08-05 08:02:00,84.3,63.7,30.09,NNE,21,0.0,3.6,50,0.00,,,0.00,VWS V13.01,2012-08-05 13:02:00,
2012-08-05 08:07:00,84.3,63.7,30.09,NNE,22,0.0,2.7,50,0.00,,,0.00,VWS V13.01,2012-08-05 13:07:00,
2012-08-05 08:12:00,84.5,64.4,30.09,ENE,63,0.0,0.0,51,0.00,,,0.00,VWS V13.01,2012-08-05 13:12:00,
2012-08-05 08:17:00,84.5,64.4,30.09,North,355,0.0,0.0,51,0.00,,,0.00,VWS V13.01,2012-08-05 13:17:00,
2012-08-05 08:22:00,84.5,64.4,30.09,North,355,0.0,0.0,51,0.00,,,0.00,VWS V13.01,2012-08-05 13:22:00,
2012-08-05 08:27:00,84.9,64.2,30.09,North,2,0.0,0.0,50,0.00,,,0.00,VWS V13.01,2012-08-05 13:27:00,
2012-08-05 08:32:00,85.0,64.9,30.09,East,98,0.0,0.0,51,0.00,,,0.00,VWS V13.01,2012-08-05 13:32:00,
2012-08-05 08:37:00,85.0,64.3,30.09,East,89,4.0,4.0,50,0.00,,,0.00,VWS V13.01,2012-08-05 13:37:00,
2012-08-05 08:42:00,85.2,64.5,30.09,NE,56,0.0,0.0,50,0.00,,,0.00,VWS V13.01,2012-08-05 13:42:00,
2012-08-05 08:47:00,85.6,64.2,30.09,East,99,0.0,3.1,49,0.00,,,0.00,VWS V13.01,2012-08-05 13:47:00,
2012-08-05 08:52:00,85.8,63.8,30.09,ENE,60,3.6,5.4,48,0.00,,,0.00,VWS V13.01,2012-08-05 13:52:00,
2012-08-05 08:57:00,85.9,64.0,30.09,East,89,2.2,2.7,48,0.00,,,0.00,VWS V13.01,2012-08-05 13:57:00,
2012-08-05 09:02:00,86.3,63.1,30.09,ESE,111,4.0,4.9,46,0.00,,,0.00,VWS V13.01,2012-08-05 14:02:00,
2012-08-05 09:07:00,86.5,63.3,30.09,East,84,4.0,6.3,46,0.00,,,0.00,VWS V13.01,2012-08-05 14:07:00,
2012-08-05 09:12:00,86.8,63.6,30.09,SE,139,2.7,4.0,46,0.00,,,0.00,VWS V13.01,2012-08-05 14:12:00,
2012-08-05 09:17:00,86.8,63.6,30.09,East,91,3.6,4.9,46,0.00,,,0.00,VWS V13.01,2012-08-05 14:17:00,
2012-08-05 09:22:00,86.8,63.0,30.09,SE,133,3.1,3.1,45,0.00,,,0.00,VWS V13.01,2012-08-05 14:22:00,
2012-08-05 09:27:00,86.8,63.0,30.09,East,101,0.0,2.7,45,0.00,,,0.00,VWS V13.01,2012-08-05 14:27:00,
2012-08-05 09:32:00,86.8,62.3,30.06,SE,126,6.3,6.3,44,0.00,,,0.00,VWS V13.01,2012-08-05 14:32:00,
2012-08-05 09:37:00,87.0,62.5,30.06,NE,56,4.0,4.0,44,0.00,,,0.00,VWS V13.01,2012-08-05 14:37:00,
2012-08-05 09:42:00,87.7,62.5,30.06,ESE,114,2.2,2.7,43,0.00,,,0.00,VWS V13.01,2012-08-05 14:42:00,
2012-08-05 09:47:00,88.3,62.3,30.06,East,101,5.4,5.8,42,0.00,,,0.00,VWS V13.01,2012-08-05 14:47:00,
2012-08-05 09:52:00,88.5,62.5,30.06,SE,128,5.8,5.8,42,0.00,,,0.00,VWS V13.01,2012-08-05 14:52:00,
2012-08-05 09:57:00,88.5,62.5,30.06,SSE,158,3.6,4.0,42,0.00,,,0.00,VWS V13.01,2012-08-05 14:57:00,
2012-08-05 10:02:00,89.2,63.1,30.06,SE,140,5.8,5.8,42,0.00,,,0.00,VWS V13.01,2012-08-05 15:02:00,
2012-08-05 10:07:00,89.0,63.0,30.06,SE,139,5.4,5.4,42,0.00,,,0.00,VWS V13.01,2012-08-05 15:07:00,
2012-08-05 10:12:00,88.8,63.5,30.06,ESE,105,3.6,3.6,43,0.00,,,0.00,VWS V13.01,2012-08-05 15:12:00,
2012-08-05 10:17:00,89.0,63.0,30.09,South,180,2.7,3.1,42,0.00,,,0.00,VWS V13.01,2012-08-05 15:17:00,
2012-08-05 10:22:00,89.5,63.4,30.09,NE,56,3.6,3.6,42,0.00,,,0.00,VWS V13.01,2012-08-05 15:22:00,
2012-08-05 10:27:00,90.1,62.5,30.09,East,89,0.0,0.0,40,0.00,,,0.00,VWS V13.01,2012-08-05 15:27:00,
2012-08-05 10:32:00,90.1,62.5,30.09,NNW,328,3.1,3.1,40,0.00,,,0.00,VWS V13.01,2012-08-05 15:32:00,
2012-08-05 10:37:00,90.1,63.2,30.09,SW,236,3.6,3.6,41,0.00,,,0.00,VWS V13.01,2012-08-05 15:37:00,
2012-08-05 10:42:00,89.5,63.4,30.09,WSW,251,3.1,3.6,42,0.00,,,0.00,VWS V13.01,2012-08-05 15:42:00,
2012-08-05 10:47:00,89.2,63.1,30.09,South,189,2.7,2.7,42,0.00,,,0.00,VWS V13.01,2012-08-05 15:47:00,
2012-08-05 10:52:00,89.4,62.6,30.09,WNW,284,2.7,4.0,41,0.00,,,0.00,VWS V13.01,2012-08-05 15:52:00,
2012-08-05 10:57:00,90.1,62.5,30.09,NNE,22,0.0,0.0,40,0.00,,,0.00,VWS V13.01,2012-08-05 15:57:00,
2012-08-05 11:02:00,90.4,62.8,30.09,North,8,0.0,3.6,40,0.00,,,0.00,VWS V13.01,2012-08-05 16:02:00,
2012-08-05 11:07:00,90.6,62.3,30.09,NW,320,0.0,0.0,39,0.00,,,0.00,VWS V13.01,2012-08-05 16:07:00,
2012-08-05 11:12:00,91.0,62.6,30.09,NNW,345,0.0,2.7,39,0.00,,,0.00,VWS V13.01,2012-08-05 16:12:00,
2012-08-05 11:17:00,90.8,61.7,30.09,NW,308,4.0,4.9,38,0.00,,,0.00,VWS V13.01,2012-08-05 16:17:00,
2012-08-05 11:22:00,91.0,62.6,30.09,North,5,3.1,3.6,39,0.00,,,0.00,VWS V13.01,2012-08-05 16:22:00,
2012-08-05 11:27:00,90.6,62.3,30.09,NW,305,2.7,6.3,39,0.00,,,0.00,VWS V13.01,2012-08-05 16:27:00,
2012-08-05 11:32:00,91.0,62.6,30.09,NNW,329,2.7,5.4,39,0.00,,,0.00,VWS V13.01,2012-08-05 16:32:00,
2012-08-05 11:37:00,90.8,62.5,30.09,NNW,342,2.7,5.8,39,0.00,,,0.00,VWS V13.01,2012-08-05 16:37:00,
2012-08-05 11:42:00,91.2,62.8,30.09,North,10,3.1,3.6,39,0.00,,,0.00,VWS V13.01,2012-08-05 16:42:00,
2012-08-05 11:47:00,91.5,62.3,30.09,NNW,342,2.7,3.1,38,0.00,,,0.00,VWS V13.01,2012-08-05 16:47:00,
2012-08-05 11:52:00,91.7,62.5,30.09,NW,312,3.1,4.0,38,0.00,,,0.00,VWS V13.01,2012-08-05 16:52:00,
2012-08-05 11:57:00,91.9,62.7,30.09,NNE,15,3.6,3.6,38,0.00,,,0.00,VWS V13.01,2012-08-05 16:57:00,
2012-08-05 12:02:00,92.6,61.0,30.09,North,9,3.6,3.6,35,0.00,,,0.00,VWS V13.01,2012-08-05 17:02:00,
2012-08-05 12:07:00,92.8,60.3,30.09,North,1,2.2,3.1,34,0.00,,,0.00,VWS V13.01,2012-08-05 17:07:00,
2012-08-05 12:12:00,93.1,59.8,30.09,NNW,335,3.6,4.9,33,0.00,,,0.00,VWS V13.01,2012-08-05 17:12:00,
2012-08-05 12:17:00,93.5,60.1,30.09,NNW,348,2.2,3.1,33,0.00,,,0.00,VWS V13.01,2012-08-05 17:17:00,
2012-08-05 12:22:00,94.0,60.6,30.09,NW,309,3.6,3.6,33,0.00,,,0.00,VWS V13.01,2012-08-05 17:22:00,
2012-08-05 12:27:00,94.6,60.2,30.09,NNW,336,2.7,3.1,32,0.00,,,0.00,VWS V13.01,2012-08-05 17:27:00,
2012-08-05 12:32:00,94.6,59.3,30.09,WNW,297,4.0,4.0,31,0.00,,,0.00,VWS V13.01,2012-08-05 17:32:00,
2012-08-05 12:37:00,94.4,58.2,30.09,NNW,337,0.0,4.0,30,0.00,,,0.00,VWS V13.01,2012-08-05 17:37:00,
2012-08-05 12:42:00,95.1,57.9,30.09,NNE,32,4.0,4.0,29,0.00,,,0.00,VWS V13.01,2012-08-05 17:42:00,
2012-08-05 12:47:00,95.7,57.4,30.09,North,2,5.8,5.8,28,0.00,,,0.00,VWS V13.01,2012-08-05 17:47:00,
2012-08-05 12:52:00,95.7,57.4,30.09,NW,317,2.2,4.9,28,0.00,,,0.00,VWS V13.01,2012-08-05 17:52:00,
2012-08-05 12:57:00,96.0,57.7,30.09,North,7,0.0,0.0,28,0.00,,,0.00,VWS V13.01,2012-08-05 17:57:00,
2012-08-05 13:02:00,96.2,56.8,30.06,WNW,290,0.0,3.1,27,0.00,,,0.00,VWS V13.01,2012-08-05 18:02:00,
2012-08-05 13:07:00,96.6,57.1,30.06,NNE,13,3.1,3.1,27,0.00,,,0.00,VWS V13.01,2012-08-05 18:07:00,
2012-08-05 13:12:00,96.7,57.3,30.06,NW,317,2.7,2.7,27,0.00,,,0.00,VWS V13.01,2012-08-05 18:12:00,
2012-08-05 13:17:00,97.1,57.6,30.06,NE,43,2.7,3.1,27,0.00,,,0.00,VWS V13.01,2012-08-05 18:17:00,
2012-08-05 13:22:00,96.9,57.4,30.06,WNW,290,4.0,4.0,27,0.00,,,0.00,VWS V13.01,2012-08-05 18:22:00,
2012-08-05 13:27:00,96.6,57.1,30.06,NE,49,3.1,3.1,27,0.00,,,0.00,VWS V13.01,2012-08-05 18:27:00,
2012-08-05 13:32:00,96.6,57.1,30.06,North,358,2.7,3.1,27,0.00,,,0.00,VWS V13.01,2012-08-05 18:32:00,
2012-08-05 13:37:00,97.1,57.6,30.06,East,93,5.8,6.3,27,0.00,,,0.00,VWS V13.01,2012-08-05 18:37:00,
2012-08-05 13:42:00,98.0,57.3,30.06,NE,46,3.6,3.6,26,0.00,,,0.00,VWS V13.01,2012-08-05 18:42:00,
2012-08-05 13:47:00,98.4,57.6,30.06,NE,43,4.0,4.0,26,0.00,,,0.00,VWS V13.01,2012-08-05 18:47:00,
2012-08-05 13:52:00,98.4,57.6,30.06,WSW,256,2.7,2.7,26,0.00,,,0.00,VWS V13.01,2012-08-05 18:52:00,
2012-08-05 13:57:00,98.5,57.8,30.06,NE,54,0.0,0.0,26,0.00,,,0.00,VWS V13.01,2012-08-05 18:57:00,
2012-08-05 14:02:00,99.3,58.4,30.06,NNW,334,3.1,6.3,26,0.00,,,0.00,VWS V13.01,2012-08-05 19:02:00,
2012-08-05 14:07:00,99.8,58.8,30.06,NE,51,3.6,3.6,26,0.00,,,0.00,VWS V13.01,2012-08-05 19:07:00,
2012-08-05 14:12:00,99.8,58.8,30.06,North,3,0.0,3.1,26,0.00,,,0.00,VWS V13.01,2012-08-05 19:12:00,
2012-08-05 14:17:00,99.6,58.7,30.06,North,354,0.0,2.7,26,0.00,,,0.00,VWS V13.01,2012-08-05 19:17:00,
2012-08-05 14:22:00,99.1,58.2,30.06,NW,304,4.9,5.8,26,0.00,,,0.00,VWS V13.01,2012-08-05 19:22:00,
2012-08-05 14:27:00,98.4,57.6,30.06,North,8,2.7,3.1,26,0.00,,,0.00,VWS V13.01,2012-08-05 19:27:00,
2012-08-05 14:33:00,98.7,57.9,30.06,NW,318,2.7,2.7,26,0.00,,,0.00,VWS V13.01,2012-08-05 19:33:00,
2012-08-05 14:38:00,100.0,59.0,30.06,WNW,299,4.0,4.9,26,0.00,,,0.00,VWS V13.01,2012-08-05 19:38:00,
2012-08-05 14:43:00,100.0,55.6,30.06,NNW,335,2.7,3.6,23,0.00,,,0.00,VWS V13.01,2012-08-05 19:43:00,
2012-08-05 14:48:00,99.4,56.3,30.06,NW,310,3.6,4.0,24,0.00,,,0.00,VWS V13.01,2012-08-05 19:48:00,
2012-08-05 14:53:00,99.4,56.3,30.06,WSW,254,3.6,5.8,24,0.00,,,0.00,VWS V13.01,2012-08-05 19:53:00,
2012-08-05 14:57:00,98.5,57.8,30.06,North,353,2.7,4.9,26,0.00,,,0.00,VWS V13.01,2012-08-05 19:57:00,
2012-08-05 15:02:00,98.7,57.9,30.06,WNW,299,3.6,4.0,26,0.00,,,0.00,VWS V13.01,2012-08-05 20:02:00,
2012-08-05 15:07:00,98.9,58.1,30.06,North,352,2.2,3.6,26,0.00,,,0.00,VWS V13.01,2012-08-05 20:07:00,
2012-08-05 15:12:00,99.1,58.2,30.06,WSW,249,6.3,6.3,26,0.00,,,0.00,VWS V13.01,2012-08-05 20:12:00,
2012-08-05 15:17:00,99.1,58.2,30.03,NNW,342,3.1,3.6,26,0.00,,,0.00,VWS V13.01,2012-08-05 20:17:00,
2012-08-05 15:22:00,99.6,58.7,30.03,NNW,344,3.6,4.9,26,0.00,,,0.00,VWS V13.01,2012-08-05 20:22:00,
2012-08-05 15:27:00,99.6,58.7,30.03,NNW,333,0.0,2.2,26,0.00,,,0.00,VWS V13.01,2012-08-05 20:27:00,
2012-08-05 15:32:00,100.2,59.1,30.03,NW,322,4.9,5.8,26,0.00,,,0.00,VWS V13.01,2012-08-05 20:32:00,
2012-08-05 15:37:00,100.5,59.4,30.03,WNW,282,6.7,6.7,26,0.00,,,0.00,VWS V13.01,2012-08-05 20:37:00,
2012-08-05 15:42:00,101.1,56.5,30.03,NE,56,4.0,4.0,23,0.00,,,0.00,VWS V13.01,2012-08-05 20:42:00,
2012-08-05 15:47:00,101.4,56.8,30.03,NNW,338,2.7,5.4,23,0.00,,,0.00,VWS V13.01,2012-08-05 20:47:00,
2012-08-05 15:52:00,101.4,56.8,30.03,WSW,251,4.0,4.0,23,0.00,,,0.00,VWS V13.01,2012-08-05 20:52:00,
2012-08-05 15:57:00,101.2,56.6,30.03,WSW,251,2.2,4.9,23,0.00,,,0.00,VWS V13.01,2012-08-05 20:57:00,
2012-08-05 16:02:00,101.1,56.5,30.03,NW,308,0.0,5.8,23,0.00,,,0.00,VWS V13.01,2012-08-05 21:02:00,
2012-08-05 16:07:00,101.2,56.6,30.03,West,281,0.0,0.0,23,0.00,,,0.00,VWS V13.01,2012-08-05 21:07:00,
2012-08-05 16:12:00,101.2,56.6,30.03,NW,313,0.0,4.0,23,0.00,,,0.00,VWS V13.01,2012-08-05 21:12:00,
2012-08-05 16:17:00,101.2,56.6,30.03,NW,311,3.6,4.0,23,0.00,,,0.00,VWS V13.01,2012-08-05 21:17:00,
2012-08-05 16:22:00,101.1,56.5,30.03,NNE,24,3.6,3.6,23,0.00,,,0.00,VWS V13.01,2012-08-05 21:22:00,
2012-08-05 16:27:00,101.6,56.9,30.03,NNW,344,3.6,3.6,23,0.00,,,0.00,VWS V13.01,2012-08-05 21:27:00,
2012-08-05 16:32:00,101.6,56.9,30.03,WNW,287,3.6,3.6,23,0.00,,,0.00,VWS V13.01,2012-08-05 21:32:00,
2012-08-05 16:37:00,101.6,56.9,30.03,NNE,15,2.2,2.7,23,0.00,,,0.00,VWS V13.01,2012-08-05 21:37:00,
2012-08-05 16:42:00,101.6,56.9,30.03,East,94,3.1,4.0,23,0.00,,,0.00,VWS V13.01,2012-08-05 21:42:00,
2012-08-05 16:47:00,101.4,56.8,30.00,North,11,0.0,0.0,23,0.00,,,0.00,VWS V13.01,2012-08-05 21:47:00,
2012-08-05 16:52:00,101.6,56.9,30.00,NE,42,5.4,5.4,23,0.00,,,0.00,VWS V13.01,2012-08-05 21:52:00,
2012-08-05 16:57:00,102.0,57.2,30.00,ENE,77,3.6,6.3,23,0.00,,,0.00,VWS V13.01,2012-08-05 21:57:00,
2012-08-05 17:02:00,102.0,57.2,30.00,ENE,62,0.0,0.0,23,0.00,,,0.00,VWS V13.01,2012-08-05 22:02:00,
2012-08-05 17:07:00,102.5,57.7,30.00,NNE,31,3.6,5.4,23,0.00,,,0.00,VWS V13.01,2012-08-05 22:07:00,
2012-08-05 17:12:00,102.5,57.7,30.00,South,187,0.0,0.0,23,0.00,,,0.00,VWS V13.01,2012-08-05 22:12:00,
2012-08-05 17:17:00,102.5,57.7,30.00,SE,135,3.1,5.8,23,0.00,,,0.00,VWS V13.01,2012-08-05 22:17:00,
2012-08-05 17:22:00,102.0,57.2,30.00,South,172,3.6,3.6,23,0.00,,,0.00,VWS V13.01,2012-08-05 22:22:00,
2012-08-05 17:27:00,102.0,57.2,30.00,WSW,249,3.1,3.1,23,0.00,,,0.00,VWS V13.01,2012-08-05 22:27:00,
2012-08-05 17:32:00,102.5,57.7,30.00,WSW,254,0.0,0.0,23,0.00,,,0.00,VWS V13.01,2012-08-05 22:32:00,
2012-08-05 17:37:00,102.9,58.0,30.00,ESE,103,0.0,0.0,23,0.00,,,0.00,VWS V13.01,2012-08-05 22:37:00,
2012-08-05 17:42:00,102.5,57.7,30.00,SSE,167,2.7,3.6,23,0.00,,,0.00,VWS V13.01,2012-08-05 22:42:00,
2012-08-05 17:47:00,102.1,57.4,30.00,ESE,119,2.7,4.0,23,0.00,,,0.00,VWS V13.01,2012-08-05 22:47:00,
2012-08-05 17:52:00,102.3,57.5,30.00,East,81,3.1,3.1,23,0.00,,,0.00,VWS V13.01,2012-08-05 22:52:00,
2012-08-05 17:57:00,102.1,57.4,30.00,ENE,77,0.0,0.0,23,0.00,,,0.00,VWS V13.01,2012-08-05 22:57:00,
2012-08-05 18:02:00,101.8,57.1,30.00,NE,39,2.2,2.2,23,0.00,,,0.00,VWS V13.01,2012-08-05 23:02:00,
2012-08-05 18:07:00,101.6,56.9,30.00,East,88,4.5,4.5,23,0.00,,,0.00,VWS V13.01,2012-08-05 23:07:00,
2012-08-05 18:12:00,101.2,56.6,30.00,SE,127,3.1,5.4,23,0.00,,,0.00,VWS V13.01,2012-08-05 23:12:00,
2012-08-05 18:17:00,100.7,56.2,30.00,ESE,112,0.0,0.0,23,0.00,,,0.00,VWS V13.01,2012-08-05 23:17:00,
2012-08-05 18:22:00,100.9,56.3,30.00,South,176,4.0,4.9,23,0.00,,,0.00,VWS V13.01,2012-08-05 23:22:00,
2012-08-05 18:27:00,100.5,56.0,30.00,SSE,160,4.0,4.0,23,0.00,,,0.00,VWS V13.01,2012-08-05 23:27:00,
2012-08-05 18:32:00,100.3,55.9,30.00,SSE,147,2.2,2.7,23,0.00,,,0.00,VWS V13.01,2012-08-05 23:32:00,
2012-08-05 18:37:00,100.2,55.7,30.00,SE,132,2.7,2.7,23,0.00,,,0.00,VWS V13.01,2012-08-05 23:37:00,
2012-08-05 18:42:00,100.0,55.6,30.00,South,186,2.7,2.7,23,0.00,,,0.00,VWS V13.01,2012-08-05 23:42:00,
2012-08-05 18:47:00,99.6,56.5,30.00,South,183,0.0,0.0,24,0.00,,,0.00,VWS V13.01,2012-08-05 23:47:00,
2012-08-05 18:52:00,100.0,55.6,30.00,South,183,0.0,0.0,23,0.00,,,0.00,VWS V13.01,2012-08-05 23:52:00,
2012-08-05 18:57:00,100.2,55.7,30.00,SSE,147,0.0,0.0,23,0.00,,,0.00,VWS V13.01,2012-08-05 23:57:00,
2012-08-05 19:02:00,100.2,55.7,30.00,SSE,163,0.0,0.0,23,0.00,,,0.00,VWS V13.01,2012-08-06 00:02:00,
2012-08-05 19:07:00,100.5,59.4,30.00,NNE,31,0.0,0.0,26,0.00,,,0.00,VWS V13.01,2012-08-06 00:07:00,
2012-08-05 19:12:00,100.9,59.7,30.00,East,89,4.9,4.9,26,0.00,,,0.00,VWS V13.01,2012-08-06 00:12:00,
2012-08-05 19:17:00,100.7,56.2,30.00,ENE,65,2.7,4.5,23,0.00,,,0.00,VWS V13.01,2012-08-06 00:17:00,
2012-08-05 19:22:00,100.5,56.0,30.00,East,89,0.0,0.0,23,0.00,,,0.00,VWS V13.01,2012-08-06 00:22:00,
2012-08-05 19:27:00,100.5,56.0,30.00,NE,55,0.0,4.0,23,0.00,,,0.00,VWS V13.01,2012-08-06 00:27:00,
2012-08-05 19:32:00,100.5,56.0,30.03,ESE,121,8.1,8.1,23,0.00,,,0.00,VWS V13.01,2012-08-06 00:32:00,
2012-08-05 19:37:00,100.0,55.6,30.03,East,84,3.6,5.4,23,0.00,,,0.00,VWS V13.01,2012-08-06 00:37:00,
2012-08-05 19:42:00,99.6,56.5,30.03,ESE,108,3.1,5.4,24,0.00,,,0.00,VWS V13.01,2012-08-06 00:42:00,
2012-08-05 19:47:00,99.3,58.4,30.03,ENE,63,4.0,4.0,26,0.00,,,0.00,VWS V13.01,2012-08-06 00:47:00,
2012-08-05 19:52:00,98.9,58.1,30.03,East,89,3.1,3.6,26,0.00,,,0.00,VWS V13.01,2012-08-06 00:52:00,
2012-08-05 19:57:00,98.7,57.9,30.03,ENE,72,4.0,5.8,26,0.00,,,0.00,VWS V13.01,2012-08-06 00:57:00,
2012-08-05 20:02:00,98.4,57.6,30.03,East,94,6.3,6.3,26,0.00,,,0.00,VWS V13.01,2012-08-06 01:02:00,
2012-08-05 20:07:00,98.0,57.3,30.03,NE,34,3.6,3.6,26,0.00,,,0.00,VWS V13.01,2012-08-06 01:07:00,
2012-08-05 20:12:00,97.8,58.2,30.03,NNE,33,3.1,3.1,27,0.00,,,0.00,VWS V13.01,2012-08-06 01:12:00,
2012-08-05 20:17:00,97.5,57.9,30.03,North,4,2.7,2.7,27,0.00,,,0.00,VWS V13.01,2012-08-06 01:17:00,
2012-08-05 20:22:00,97.1,57.6,30.03,NNE,18,2.2,2.2,27,0.00,,,0.00,VWS V13.01,2012-08-06 01:22:00,
2012-08-05 20:27:00,96.7,57.3,30.03,NE,39,4.0,4.0,27,0.00,,,0.00,VWS V13.01,2012-08-06 01:27:00,
2012-08-05 20:32:00,96.4,58.0,30.03,NNE,20,3.1,3.6,28,0.00,,,0.00,VWS V13.01,2012-08-06 01:32:00,
2012-08-05 20:37:00,96.0,57.7,30.03,NE,43,3.6,3.6,28,0.00,,,0.00,VWS V13.01,2012-08-06 01:37:00,
2012-08-05 20:42:00,95.8,57.5,30.03,North,4,2.7,3.1,28,0.00,,,0.00,VWS V13.01,2012-08-06 01:42:00,
2012-08-05 20:47:00,95.7,58.3,30.03,NE,54,0.0,0.0,29,0.00,,,0.00,VWS V13.01,2012-08-06 01:47:00,
2012-08-05 20:52:00,95.3,58.0,30.03,NNE,33,3.1,3.1,29,0.00,,,0.00,VWS V13.01,2012-08-06 01:52:00,
2012-08-05 20:57:00,94.9,57.7,30.03,NE,37,3.1,3.1,29,0.00,,,0.00,VWS V13.01,2012-08-06 01:57:00,
2012-08-05 21:02:00,94.6,57.4,30.03,NE,47,3.1,3.6,29,0.00,,,0.00,VWS V13.01,2012-08-06 02:02:00,
2012-08-05 21:07:00,94.4,57.3,30.03,NE,44,2.7,2.7,29,0.00,,,0.00,VWS V13.01,2012-08-06 02:07:00,
2012-08-05 21:12:00,94.2,58.1,30.03,NE,40,2.7,3.1,30,0.00,,,0.00,VWS V13.01,2012-08-06 02:12:00,
2012-08-05 21:17:00,94.0,57.9,30.03,ENE,58,2.7,4.0,30,0.00,,,0.00,VWS V13.01,2012-08-06 02:17:00,
2012-08-05 21:22:00,93.7,58.5,30.03,ENE,59,2.2,3.1,31,0.00,,,0.00,VWS V13.01,2012-08-06 02:22:00,
2012-08-05 21:27:00,93.7,58.5,30.03,NE,34,0.0,0.0,31,0.00,,,0.00,VWS V13.01,2012-08-06 02:27:00,
2012-08-05 21:32:00,93.3,58.2,30.03,NE,39,3.1,3.1,31,0.00,,,0.00,VWS V13.01,2012-08-06 02:32:00,
2012-08-05 21:37:00,93.1,58.9,30.03,NNE,27,3.1,3.1,32,0.00,,,0.00,VWS V13.01,2012-08-06 02:37:00,
2012-08-05 21:42:00,92.8,58.6,30.03,NE,40,2.7,2.7,32,0.00,,,0.00,VWS V13.01,2012-08-06 02:42:00,
2012-08-05 21:47:00,92.6,59.3,30.03,NE,42,0.0,0.0,33,0.00,,,0.00,VWS V13.01,2012-08-06 02:47:00,
2012-08-05 21:52:00,92.4,60.0,30.03,NE,52,0.0,0.0,34,0.00,,,0.00,VWS V13.01,2012-08-06 02:52:00,
2012-08-05 21:57:00,92.2,59.8,30.03,NE,52,0.0,0.0,34,0.00,,,0.00,VWS V13.01,2012-08-06 02:57:00,
2012-08-05 22:02:00,91.9,60.3,30.06,NE,52,0.0,0.0,35,0.00,,,0.00,VWS V13.01,2012-08-06 03:02:00,
2012-08-05 22:07:00,91.5,60.8,30.06,NNE,29,2.7,2.7,36,0.00,,,0.00,VWS V13.01,2012-08-06 03:07:00,
2012-08-05 22:12:00,91.3,61.4,30.06,NNE,29,0.0,0.0,37,0.00,,,0.00,VWS V13.01,2012-08-06 03:12:00,
2012-08-05 22:17:00,91.2,61.3,30.06,NNE,13,3.6,3.6,37,0.00,,,0.00,VWS V13.01,2012-08-06 03:17:00,
2012-08-05 22:22:00,91.2,62.0,30.06,NNE,18,4.9,5.4,38,0.00,,,0.00,VWS V13.01,2012-08-06 03:22:00,
2012-08-05 22:27:00,91.0,61.9,30.06,NNE,31,3.6,3.6,38,0.00,,,0.00,VWS V13.01,2012-08-06 03:27:00,
2012-08-05 22:32:00,90.8,61.7,30.06,NE,38,0.0,0.0,38,0.00,,,0.00,VWS V13.01,2012-08-06 03:32:00,
2012-08-05 22:37:00,90.6,61.6,30.06,NE,45,0.0,0.0,38,0.00,,,0.00,VWS V13.01,2012-08-06 03:37:00,
2012-08-05 22:42:00,90.3,62.0,30.06,NNE,22,2.7,2.7,39,0.00,,,0.00,VWS V13.01,2012-08-06 03:42:00,
2012-08-05 22:47:00,90.1,61.8,30.06,NNE,18,3.1,3.1,39,0.00,,,0.00,VWS V13.01,2012-08-06 03:47:00,
2012-08-05 22:52:00,89.9,61.7,30.06,NE,39,2.7,2.7,39,0.00,,,0.00,VWS V13.01,2012-08-06 03:52:00,
2012-08-05 22:57:00,89.7,61.5,30.06,NE,45,2.7,2.7,39,0.00,,,0.00,VWS V13.01,2012-08-06 03:57:00,
2012-08-05 23:00:00,89.7,61.5,30.06,NE,37,3.6,4.0,39,0.00,,,0.00,VWS V13.01,2012-08-06 04:00:00,
2012-08-05 23:01:00,89.7,61.5,30.06,NE,37,2.2,4.0,39,0.00,,,0.00,VWS V13.01,2012-08-06 04:01:00,
2012-08-05 23:03:00,89.5,61.3,30.06,NE,38,4.0,4.0,39,0.00,,,0.00,VWS V13.01,2012-08-06 04:03:00,
2012-08-05 23:08:00,89.5,62.0,30.06,NE,48,0.0,2.7,40,0.00,,,0.00,VWS V13.01,2012-08-06 04:08:00,
2012-08-05 23:13:00,89.4,61.9,30.06,NE,43,0.0,3.1,40,0.00,,,0.00,VWS V13.01,2012-08-06 04:13:00,
2012-08-05 23:19:00,89.2,61.7,30.06,NNE,25,0.0,2.2,40,0.00,,,0.00,VWS V13.01,2012-08-06 04:19:00,
2012-08-05 23:24:00,89.2,61.7,30.06,NE,37,0.0,0.0,40,0.00,,,0.00,VWS V13.01,2012-08-06 04:24:00,
2012-08-05 23:29:00,89.0,61.6,30.06,NE,43,0.0,0.0,40,0.00,,,0.00,VWS V13.01,2012-08-06 04:29:00,
2012-08-05 23:34:00,88.8,62.1,30.09,NE,40,0.0,0.0,41,0.00,,,0.00,VWS V13.01,2012-08-06 04:34:00,
2012-08-05 23:39:00,88.6,61.9,30.09,NE,46,0.0,0.0,41,0.00,,,0.00,VWS V13.01,2012-08-06 04:39:00,
2012-08-05 23:44:00,88.6,61.9,30.09,NE,47,0.0,0.0,41,0.00,,,0.00,VWS V13.01,2012-08-06 04:44:00,
2012-08-05 23:49:00,88.5,62.5,30.09,NNE,33,0.0,0.0,42,0.00,,,0.00,VWS V13.01,2012-08-06 04:49:00,
2012-08-05 23:54:00,88.3,62.3,30.09,NE,35,0.0,0.0,42,0.00,,,0.00,VWS V13.01,2012-08-06 04:54:00,
2012-08-05 23:59:00,88.1,62.1,30.09,NE,35,0.0,2.2,42,0.00,,,0.00,VWS V13.01,2012-08-06 04:59:00,